This is the latest recevied weather packets stored in our database for station/object KC0AFB. If no packets are shown the sender has not sent any weather packets the latest 1 day(s).
| Time | Temp. | Humidity | Pressure | Rain* | Wind** | Luminosity | Snow |
|---|---|---|---|---|---|---|---|
| 1778003161 | 5.56° C | 48% | 1014.5 hPa | 0 mm | 5.36 m/s, 329° | 430 W/m² | - |
| 1778002857 | 5.56° C | 47% | 1014.5 hPa | 0 mm | 4.92 m/s, 313° | 304 W/m² | - |
| 1778002554 | 5.56° C | 47% | 1014.5 hPa | 0 mm | 5.81 m/s, 291° | 285 W/m² | - |
| 1778002251 | 5.56° C | 48% | 1014.9 hPa | 0 mm | 3.13 m/s, 294° | 288 W/m² | - |
| 1778001948 | 5° C | 47% | 1014.8 hPa | 0 mm | 4.02 m/s, 301° | 278 W/m² | - |
| 1778001645 | 5° C | 46% | 1014.5 hPa | 0 mm | 4.47 m/s, 290° | 308 W/m² | - |
| 1778001339 | 5° C | 47% | 1014.5 hPa | 0 mm | 4.47 m/s, 343° | 270 W/m² | - |
| 1778001037 | 5.56° C | 46% | 1014.4 hPa | 0 mm | 4.92 m/s, 336° | 286 W/m² | - |
| 1778000733 | 5.56° C | 48% | 1014.4 hPa | 0 mm | 3.13 m/s, 294° | 323 W/m² | - |
| 1778000430 | 5.56° C | 47% | 1014.4 hPa | 0 mm | 5.36 m/s, 286° | 277 W/m² | - |
| 1778000125 | 5° C | 48% | 1014.5 hPa | 0 mm | 3.13 m/s, 281° | 278 W/m² | - |
| 1777999821 | 5.56° C | 48% | 1014.5 hPa | 0 mm | 5.36 m/s, 318° | 217 W/m² | - |
| 1777999517 | 6.67° C | 50% | 1014.5 hPa | 0 mm | 2.68 m/s, 294° | 248 W/m² | - |
| 1777999215 | 5° C | 52% | 1014.5 hPa | 0 mm | 3.13 m/s, 351° | 355 W/m² | - |
| 1777998914 | 4.44° C | 52% | 1014.6 hPa | 0 mm | 4.02 m/s, 313° | 248 W/m² | - |
| 1777998609 | 4.44° C | 51% | 1014.6 hPa | 0 mm | 4.02 m/s, 291° | 149 W/m² | - |
| 1777998303 | 4.44° C | 50% | 1014.5 hPa | 0 mm | 5.81 m/s, 293° | 139 W/m² | - |
| 1777998000 | 4.44° C | 51% | 1014.6 hPa | 0 mm | 4.47 m/s, 288° | 765 W/m² | - |
| 1777997696 | 4.44° C | 50% | 1014.4 hPa | 0 mm | 4.02 m/s, 323° | 165 W/m² | - |
| 1777997394 | 5° C | 52% | 1014.5 hPa | 0 mm | 3.58 m/s, 327° | 262 W/m² | - |
| 1777997092 | 4.44° C | 51% | 1014.2 hPa | 0 mm | 4.47 m/s, 331° | 445 W/m² | - |
| 1777996788 | 3.89° C | 50% | 1014.3 hPa | 0 mm | 4.92 m/s, 302° | 249 W/m² | - |
| 1777996485 | 3.89° C | 51% | 1014.3 hPa | 0 mm | 5.36 m/s, 268° | 197 W/m² | - |
| 1777996182 | 3.89° C | 53% | 1014.3 hPa | 0 mm | 3.58 m/s, 329° | 193 W/m² | - |
| 1777995878 | 4.44° C | 54% | 1014.2 hPa | 0 mm | 4.47 m/s, 270° | 178 W/m² | - |
* Rain latest hour (hover to see other rain measurements)
** Current wind speed in m/s (hover to see current wind gust speed)